Location: Aalen
(48.8330°N, 10.1000°E)
Time: 05:35:43
(UTC+02:00)

UWE-3 - Pass Details

Date: 04 April 2023
Orbit: 576 x 670 km, 97.7° (Epoch: 29 May)

Event Time Altitude Azimuth Distance (km) Brightness Sun altitude
Rises 06:07:16 0° 357° (N) 2,974 ? -8.0°
Reaches altitude 10° 06:10:51 10° 327° (NNW) 2,034 ? -7.4°
Maximum altitude 06:12:30 12° 305° (NW) 1,889 ? -7.2°
Drops below altitude 10° 06:14:09 10° 282° (WNW) 2,007 ? -6.9°
Enters shadow 06:15:15 - 270° (W) 2,215 ? -6.7°
